status,avgMeasuredTime,avgSpeed,extID,medianMeasuredTime,TIMESTAMP,vehicleCount,_id,REPORT_ID
OK,109,35,737,109,2014-08-01T07:55:00,13,20746461,201507
OK,87,44,737,87,2014-08-01T08:00:00,5,20746792,201507
OK,85,45,737,85,2014-08-01T08:05:00,8,20747241,201507
OK,91,42,737,91,2014-08-01T08:10:00,14,20747614,201507
OK,99,39,737,99,2014-08-01T08:15:00,15,20748063,201507
OK,92,42,737,92,2014-08-01T08:20:00,11,20748512,201507
OK,84,46,737,84,2014-08-01T08:25:00,11,20748961,201507
OK,93,41,737,93,2014-08-01T08:30:00,10,20749410,201507
OK,93,41,737,93,2014-08-01T08:35:00,15,20749859,201507
OK,100,38,737,100,2014-08-01T08:40:00,10,20750308,201507
OK,113,34,737,113,2014-08-01T08:45:00,3,20750757,201507
OK,105,36,737,105,2014-08-01T08:50:00,3,20751206,201507
OK,85,45,737,85,2014-08-01T08:55:00,7,20751655,201507
OK,92,42,737,92,2014-08-01T09:00:00,9,20752104,201507
OK,99,39,737,99,2014-08-01T09:05:00,7,20752553,201507
OK,99,39,737,99,2014-08-01T09:10:00,7,20753002,201507
OK,99,39,737,99,2014-08-01T09:15:00,11,20753451,201507
OK,137,28,737,137,2014-08-01T09:20:00,13,20753900,201507
OK,115,33,737,115,2014-08-01T09:25:00,16,20754349,201507
OK,108,35,737,108,2014-08-01T09:30:00,14,20754798,201507
OK,125,30,737,125,2014-08-01T09:35:00,5,20755247,201507
OK,125,30,737,125,2014-08-01T09:40:00,7,20755696,201507
OK,97,39,737,97,2014-08-01T09:45:00,10,20756145,201507
OK,86,44,737,86,2014-08-01T09:50:00,9,20756594,201507
OK,82,47,737,82,2014-08-01T09:55:00,8,20757043,201507
OK,121,31,737,121,2014-08-01T10:00:00,3,20757492,201507
OK,98,39,737,98,2014-08-01T10:05:00,7,20757941,201507
OK,98,39,737,98,2014-08-01T10:10:00,9,20758390,201507
OK,99,39,737,99,2014-08-01T10:15:00,7,20758839,201507
OK,99,39,737,99,2014-08-01T10:20:00,5,20759288,201507
OK,95,40,737,95,2014-08-01T10:25:00,10,20759737,201507
OK,95,40,737,95,2014-08-01T10:30:00,8,20760186,201507
OK,97,39,737,97,2014-08-01T10:35:00,8,20760635,201507
OK,103,37,737,103,2014-08-01T10:40:00,12,20761084,201507
OK,103,37,737,103,2014-08-01T10:45:00,10,20761533,201507
OK,105,36,737,105,2014-08-01T10:50:00,3,20761982,201507
OK,90,42,737,90,2014-08-01T10:55:00,8,20762431,201507
OK,104,37,737,104,2014-08-01T11:00:00,11,20762880,201507
OK,104,37,737,104,2014-08-01T11:05:00,6,20763329,201507
OK,96,40,737,96,2014-08-01T11:10:00,3,20763778,201507
OK,108,35,737,108,2014-08-01T11:15:00,6,20764227,201507
OK,103,37,737,103,2014-08-01T11:20:00,9,20764675,201507
OK,90,42,737,90,2014-08-01T11:25:00,11,20765124,201507
OK,91,42,737,91,2014-08-01T11:30:00,7,20765573,201507
OK,116,33,737,116,2014-08-01T11:35:00,9,20766022,201507
OK,109,35,737,109,2014-08-01T11:40:00,8,20766471,201507
OK,80,48,737,80,2014-08-01T11:45:00,6,20766920,201507
OK,90,42,737,90,2014-08-01T11:50:00,7,20767369,201507
OK,94,41,737,94,2014-08-01T11:55:00,12,20767818,201507
OK,93,41,737,93,2014-08-01T12:00:00,9,20768267,201507
OK,84,46,737,84,2014-08-01T12:05:00,7,20768716,201507
OK,107,36,737,107,2014-08-01T12:10:00,11,20769165,201507
OK,118,32,737,118,2014-08-01T12:15:00,7,20769614,201507
OK,109,35,737,109,2014-08-01T12:20:00,9,20770063,201507
OK,113,34,737,113,2014-08-01T12:25:00,12,20770512,201507
OK,105,36,737,105,2014-08-01T12:30:00,8,20770961,201507
OK,96,40,737,96,2014-08-01T12:35:00,9,20771410,201507
OK,78,49,737,78,2014-08-01T12:40:00,1,20771859,201507
OK,108,35,737,108,2014-08-01T12:45:00,6,20772308,201507
OK,107,36,737,107,2014-08-01T12:50:00,8,20772757,201507
OK,114,33,737,114,2014-08-01T12:55:00,4,20773206,201507
OK,99,39,737,99,2014-08-01T13:00:00,4,20773655,201507
OK,104,37,737,104,2014-08-01T13:05:00,2,20774104,201507
OK,113,34,737,113,2014-08-01T13:10:00,8,20774553,201507
OK,111,34,737,111,2014-08-01T13:15:00,13,20775002,201507
OK,106,36,737,106,2014-08-01T13:20:00,11,20775451,201507
OK,74,52,737,74,2014-08-01T13:25:00,9,20775900,201507
OK,71,54,737,71,2014-08-01T13:30:00,7,20776349,201507
OK,73,52,737,73,2014-08-01T13:35:00,4,20776798,201507
OK,75,51,737,75,2014-08-01T13:40:00,5,20777247,201507
OK,78,49,737,78,2014-08-01T13:45:00,4,20777696,201507
OK,100,38,737,100,2014-08-01T13:50:00,7,20778145,201507
OK,99,39,737,99,2014-08-01T13:55:00,10,20778594,201507
OK,69,56,737,69,2014-08-01T14:00:00,3,20779043,201507
OK,90,42,737,90,2014-08-01T14:05:00,0,20779492,201507
OK,91,42,737,91,2014-08-01T14:10:00,9,20779941,201507
OK,81,47,737,81,2014-08-01T14:15:00,9,20780390,201507
OK,95,40,737,95,2014-08-01T14:20:00,13,20780839,201507
OK,95,40,737,95,2014-08-01T14:25:00,9,20781288,201507
OK,84,46,737,84,2014-08-01T14:30:00,9,20781737,201507
OK,75,51,737,75,2014-08-01T14:35:00,8,20782186,201507
OK,78,49,737,78,2014-08-01T14:40:00,9,20782635,201507
OK,85,45,737,85,2014-08-01T14:45:00,7,20783084,201507
OK,94,41,737,94,2014-08-01T14:50:00,6,20783533,201507
OK,90,42,737,90,2014-08-01T14:55:00,13,20783982,201507
OK,92,42,737,92,2014-08-01T15:00:00,11,20784431,201507
OK,92,42,737,92,2014-08-01T15:05:00,5,20784880,201507
OK,102,37,737,102,2014-08-01T15:10:00,8,20785329,201507
OK,107,36,737,107,2014-08-01T15:15:00,8,20785778,201507
OK,99,39,737,99,2014-08-01T15:20:00,9,20786227,201507
OK,99,39,737,99,2014-08-01T15:25:00,11,20786676,201507
OK,92,42,737,92,2014-08-01T15:30:00,11,20787125,201507
OK,90,42,737,90,2014-08-01T15:35:00,11,20787574,201507
OK,99,39,737,99,2014-08-01T15:40:00,9,20788023,201507
OK,116,33,737,116,2014-08-01T15:45:00,8,20788472,201507
OK,143,27,737,143,2014-08-01T15:50:00,5,20788921,201507
OK,104,37,737,104,2014-08-01T15:55:00,4,20789370,201507
OK,72,53,737,72,2014-08-01T16:00:00,3,20789819,201507
OK,101,38,737,101,2014-08-01T16:05:00,4,20790268,201507
OK,117,33,737,117,2014-08-01T16:10:00,6,20790717,201507
OK,132,29,737,132,2014-08-01T16:15:00,4,20791166,201507
OK,86,44,737,86,2014-08-01T16:20:00,3,20791615,201507
OK,86,44,737,86,2014-08-01T16:25:00,5,20792064,201507
OK,85,45,737,85,2014-08-01T16:30:00,2,20792513,201507
OK,96,40,737,96,2014-08-01T16:35:00,1,20792962,201507
OK,81,47,737,81,2014-08-01T16:40:00,2,20793411,201507
OK,106,36,737,106,2014-08-01T16:45:00,6,20793860,201507
OK,114,33,737,114,2014-08-01T16:50:00,10,20794309,201507
OK,104,37,737,104,2014-08-01T16:55:00,10,20794758,201507
OK,99,39,737,99,2014-08-01T17:00:00,10,20795207,201507
OK,102,37,737,102,2014-08-01T17:05:00,6,20795656,201507
OK,102,37,737,102,2014-08-01T17:10:00,0,20796105,201507
OK,65,59,737,65,2014-08-01T17:15:00,1,20796554,201507
OK,84,46,737,84,2014-08-01T17:20:00,5,20797003,201507
OK,81,47,737,81,2014-08-01T17:25:00,6,20797452,201507
OK,74,52,737,74,2014-08-01T17:30:00,4,20797901,201507
OK,70,55,737,70,2014-08-01T17:35:00,3,20798350,201507
OK,70,55,737,70,2014-08-01T17:40:00,6,20798799,201507
OK,65,59,737,65,2014-08-01T17:45:00,8,20799248,201507
OK,100,38,737,100,2014-08-01T17:50:00,3,20799697,201507
OK,101,38,737,101,2014-08-01T17:55:00,3,20800146,201507
OK,109,35,737,109,2014-08-01T18:00:00,2,20800595,201507
OK,73,52,737,73,2014-08-01T18:05:00,2,20801044,201507
OK,66,58,737,66,2014-08-01T18:10:00,6,20801493,201507
OK,67,57,737,67,2014-08-01T18:15:00,5,20801942,201507
OK,78,49,737,78,2014-08-01T18:20:00,3,20802391,201507
OK,72,53,737,72,2014-08-01T18:25:00,6,20802840,201507
OK,77,50,737,77,2014-08-01T18:30:00,4,20803289,201507
OK,79,48,737,79,2014-08-01T18:35:00,4,20803738,201507
OK,83,46,737,83,2014-08-01T18:40:00,3,20804187,201507
OK,91,42,737,91,2014-08-01T18:45:00,2,20804636,201507
OK,93,41,737,93,2014-08-01T18:50:00,2,20805085,201507
OK,108,35,737,108,2014-08-01T18:55:00,1,20805534,201507
OK,95,40,737,95,2014-08-01T19:00:00,2,20805983,201507
OK,90,42,737,90,2014-08-01T19:05:00,2,20806432,201507
OK,76,50,737,76,2014-08-01T19:10:00,5,20806881,201507
OK,75,51,737,75,2014-08-01T19:15:00,4,20807330,201507
OK,78,49,737,78,2014-08-01T19:20:00,2,20807779,201507
OK,81,47,737,81,2014-08-01T19:25:00,1,20808228,201507
OK,68,56,737,68,2014-08-01T19:30:00,2,20808677,201507
OK,78,49,737,78,2014-08-01T19:35:00,3,20809126,201507
OK,103,37,737,103,2014-08-01T19:40:00,4,20809575,201507
OK,97,39,737,97,2014-08-01T19:45:00,3,20810024,201507
OK,85,45,737,85,2014-08-01T19:50:00,5,20810473,201507
OK,75,51,737,75,2014-08-01T19:55:00,4,20810922,201507
OK,83,46,737,83,2014-08-01T20:20:00,7,20812159,201507
OK,89,43,737,89,2014-08-01T20:50:00,2,20813420,201507
OK,77,50,737,77,2014-08-01T21:20:00,2,20814708,201507
OK,93,41,737,93,2014-08-01T21:30:00,2,20815213,201507
OK,89,43,737,89,2014-08-01T21:40:00,3,20815670,201507
OK,84,46,737,84,2014-08-01T21:45:00,4,20815907,201507
OK,78,49,737,78,2014-08-01T21:50:00,4,20816148,201507
OK,85,45,737,85,2014-08-01T21:55:00,2,20816383,201507
OK,77,50,737,77,2014-08-01T22:00:00,0,20816651,201507
OK,77,50,737,77,2014-08-01T22:05:00,0,20817100,201507
OK,65,59,737,65,2014-08-01T22:10:00,1,20817422,201507
OK,65,59,737,65,2014-08-01T22:15:00,1,20817851,201507
OK,92,42,737,92,2014-08-01T22:20:00,1,20818141,201507
OK,92,42,737,92,2014-08-01T22:25:00,1,20818457,201507
OK,71,54,737,71,2014-08-01T22:30:00,1,20818791,201507
OK,61,63,737,61,2014-08-01T22:40:00,1,20819275,201507
OK,61,63,737,61,2014-08-01T22:50:00,0,20819798,201507
OK,72,53,737,72,2014-08-01T23:10:00,0,20820710,201507
OK,72,53,737,72,2014-08-01T23:40:00,0,20821976,201507
OK,72,53,737,72,2014-08-01T23:45:00,0,20822199,201507
OK,72,53,737,72,2014-08-01T23:50:00,0,20822466,201507
OK,72,53,737,72,2014-08-01T23:55:00,0,20822792,201507
OK,72,53,737,72,2014-08-02T00:00:00,0,20823090,201507
OK,72,53,737,72,2014-08-02T00:05:00,0,20823539,201507
OK,65,59,737,65,2014-08-02T00:10:00,1,20823988,201507
OK,65,59,737,65,2014-08-02T00:15:00,0,20824437,201507
OK,65,59,737,65,2014-08-02T00:20:00,0,20824886,201507
OK,87,44,737,87,2014-08-02T00:25:00,3,20825335,201507
OK,87,44,737,87,2014-08-02T00:30:00,1,20825784,201507
OK,87,44,737,87,2014-08-02T00:35:00,0,20826233,201507
OK,87,44,737,87,2014-08-02T00:40:00,0,20826682,201507
OK,87,44,737,87,2014-08-02T00:45:00,0,20827131,201507
OK,87,44,737,87,2014-08-02T00:50:00,0,20827580,201507
OK,87,44,737,87,2014-08-02T00:55:00,0,20828029,201507
OK,87,44,737,87,2014-08-02T01:00:00,0,20828478,201507
OK,87,44,737,87,2014-08-02T01:05:00,0,20828927,201507
OK,87,44,737,87,2014-08-02T01:10:00,0,20829376,201507
OK,87,44,737,87,2014-08-02T01:15:00,0,20829825,201507
OK,87,44,737,87,2014-08-02T01:20:00,0,20830274,201507
OK,87,44,737,87,2014-08-02T01:25:00,0,20830723,201507
OK,87,44,737,87,2014-08-02T01:30:00,0,20831172,201507
OK,87,44,737,87,2014-08-02T01:35:00,0,20831621,201507
OK,87,44,737,87,2014-08-02T01:40:00,0,20832070,201507
OK,87,44,737,87,2014-08-02T01:45:00,0,20832519,201507
OK,87,44,737,87,2014-08-02T01:50:00,0,20832968,201507
OK,87,44,737,87,2014-08-02T01:55:00,0,20833417,201507
OK,87,44,737,87,2014-08-02T02:00:00,0,20833866,201507
OK,54,71,737,54,2014-08-02T02:05:00,1,20834315,201507
OK,54,71,737,54,2014-08-02T02:10:00,0,20834764,201507
OK,74,52,737,74,2014-08-02T02:15:00,1,20835213,201507
OK,74,52,737,74,2014-08-02T02:20:00,0,20835662,201507
OK,84,46,737,84,2014-08-02T02:25:00,1,20836111,201507
OK,84,46,737,84,2014-08-02T02:30:00,0,20836560,201507
OK,39,99,737,39,2014-08-02T02:35:00,1,20837009,201507
OK,39,99,737,39,2014-08-02T02:40:00,0,20837458,201507
OK,39,99,737,39,2014-08-02T02:45:00,0,20837907,201507
OK,39,99,737,39,2014-08-02T02:50:00,0,20838356,201507
OK,50,77,737,50,2014-08-02T02:55:00,1,20838805,201507
OK,50,77,737,50,2014-08-02T03:00:00,0,20839254,201507
OK,50,77,737,50,2014-08-02T03:05:00,0,20839703,201507
OK,50,77,737,50,2014-08-02T03:10:00,0,20840152,201507
OK,50,77,737,50,2014-08-02T03:15:00,0,20840601,201507
OK,50,77,737,50,2014-08-02T03:20:00,0,20841050,201507
OK,50,77,737,50,2014-08-02T03:25:00,0,20841499,201507
OK,50,77,737,50,2014-08-02T03:30:00,0,20841948,201507
OK,50,77,737,50,2014-08-02T03:35:00,0,20842397,201507
OK,50,77,737,50,2014-08-02T03:40:00,0,20842846,201507
OK,96,40,737,96,2014-08-02T03:45:00,2,20843295,201507
OK,96,40,737,96,2014-08-02T03:50:00,0,20843744,201507
OK,96,40,737,96,2014-08-02T03:55:00,0,20844193,201507
OK,96,40,737,96,2014-08-02T04:00:00,0,20844640,201507
OK,96,40,737,96,2014-08-02T04:05:00,0,20844773,201507
OK,96,40,737,96,2014-08-02T04:10:00,0,20845103,201507
OK,96,40,737,96,2014-08-02T04:15:00,0,20845283,201507
OK,96,40,737,96,2014-08-02T04:20:00,0,20845639,201507
OK,67,57,737,67,2014-08-02T04:30:00,0,20846195,201507
OK,85,45,737,85,2014-08-02T04:35:00,1,20846562,201507
OK,66,58,737,66,2014-08-02T04:40:00,2,20846945,201507
OK,51,75,737,51,2014-08-02T04:45:00,1,20847204,201507
OK,51,75,737,51,2014-08-02T04:50:00,0,20847570,201507
OK,74,52,737,74,2014-08-02T05:00:00,1,20848287,201507
OK,90,42,737,90,2014-08-02T05:10:00,4,20848804,201507
OK,79,48,737,79,2014-08-02T05:15:00,5,20848997,201507
OK,66,58,737,66,2014-08-02T05:20:00,2,20849341,201507
OK,55,70,737,55,2014-08-02T05:35:00,2,20850138,201507
OK,78,49,737,78,2014-08-02T05:40:00,2,20850431,201507
OK,100,38,737,100,2014-08-02T05:45:00,2,20850732,201507
OK,99,39,737,99,2014-08-02T05:50:00,0,20851090,201507
OK,83,46,737,83,2014-08-02T05:55:00,2,20851344,201507
OK,83,46,737,83,2014-08-02T06:00:00,2,20851647,201507
OK,78,49,737,78,2014-08-02T06:05:00,0,20852096,201507
OK,61,63,737,61,2014-08-02T06:10:00,1,20852545,201507
OK,74,52,737,74,2014-08-02T06:15:00,1,20852994,201507
OK,75,51,737,75,2014-08-02T06:20:00,2,20853443,201507
OK,75,51,737,75,2014-08-02T06:25:00,2,20853892,201507
OK,73,52,737,73,2014-08-02T06:30:00,4,20854341,201507
OK,88,43,737,88,2014-08-02T06:35:00,6,20854790,201507
OK,99,39,737,99,2014-08-02T06:40:00,5,20855239,201507
OK,100,38,737,100,2014-08-02T06:45:00,4,20855688,201507
OK,80,48,737,80,2014-08-02T06:50:00,3,20856137,201507
OK,90,42,737,90,2014-08-02T06:55:00,5,20856586,201507
OK,93,41,737,93,2014-08-02T07:00:00,2,20857035,201507
OK,93,41,737,93,2014-08-02T07:05:00,0,20857484,201507
OK,94,41,737,94,2014-08-02T07:10:00,4,20857933,201507
OK,75,51,737,75,2014-08-02T07:15:00,5,20858382,201507
OK,72,53,737,72,2014-08-02T07:20:00,5,20858831,201507
OK,86,44,737,86,2014-08-02T07:25:00,3,20859280,201507
OK,86,44,737,86,2014-08-02T07:30:00,1,20859729,201507
OK,85,45,737,85,2014-08-02T07:35:00,5,20860178,201507
OK,87,44,737,87,2014-08-02T07:40:00,7,20860627,201507
OK,81,47,737,81,2014-08-02T07:45:00,8,20861076,201507
OK,76,50,737,76,2014-08-02T07:50:00,10,20861525,201507
OK,92,42,737,92,2014-08-02T07:55:00,10,20861974,201507
OK,88,43,737,88,2014-08-02T08:00:00,10,20862423,201507
OK,87,44,737,87,2014-08-02T08:05:00,6,20862872,201507
OK,93,41,737,93,2014-08-02T08:10:00,9,20863321,201507
OK,91,42,737,91,2014-08-02T08:15:00,9,20863770,201507
OK,93,41,737,93,2014-08-02T08:20:00,8,20864219,201507
OK,94,41,737,94,2014-08-02T08:25:00,7,20864668,201507
OK,81,47,737,81,2014-08-02T08:30:00,6,20865117,201507
OK,92,42,737,92,2014-08-02T08:35:00,9,20865566,201507
OK,97,39,737,97,2014-08-02T08:40:00,15,20866015,201507
OK,114,33,737,114,2014-08-02T08:45:00,18,20866464,201507
OK,122,31,737,122,2014-08-02T08:50:00,21,20866913,201507
OK,101,38,737,101,2014-08-02T08:55:00,17,20867362,201507
OK,88,43,737,88,2014-08-02T09:00:00,11,20867811,201507
OK,74,52,737,74,2014-08-02T09:05:00,6,20868260,201507
OK,86,44,737,86,2014-08-02T09:10:00,8,20868709,201507
OK,79,48,737,79,2014-08-02T09:15:00,9,20869158,201507
OK,94,41,737,94,2014-08-02T09:20:00,7,20869607,201507
OK,104,37,737,104,2014-08-02T09:25:00,6,20870056,201507
OK,89,43,737,89,2014-08-02T09:30:00,10,20870505,201507
OK,91,42,737,91,2014-08-02T09:35:00,9,20870954,201507
OK,108,35,737,108,2014-08-02T09:40:00,3,20871403,201507
OK,75,51,737,75,2014-08-02T09:45:00,6,20871852,201507
OK,92,42,737,92,2014-08-02T09:50:00,9,20872301,201507
OK,93,41,737,93,2014-08-02T09:55:00,10,20872750,201507
OK,94,41,737,94,2014-08-02T10:00:00,7,20873199,201507
OK,96,40,737,96,2014-08-02T10:05:00,6,20873648,201507
OK,86,44,737,86,2014-08-02T10:10:00,6,20874097,201507
OK,95,40,737,95,2014-08-02T10:15:00,6,20874546,201507
OK,88,43,737,88,2014-08-02T10:20:00,8,20874995,201507
OK,75,51,737,75,2014-08-02T10:25:00,6,20875444,201507
OK,79,48,737,79,2014-08-02T10:30:00,3,20875893,201507
OK,79,48,737,79,2014-08-02T10:35:00,0,20876342,201507
OK,119,32,737,119,2014-08-02T10:40:00,2,20876791,201507
OK,83,46,737,83,2014-08-02T10:45:00,6,20877240,201507
OK,89,43,737,89,2014-08-02T10:50:00,8,20877689,201507
OK,82,47,737,82,2014-08-02T10:55:00,7,20878138,201507
OK,85,45,737,85,2014-08-02T11:00:00,8,20878587,201507
OK,94,41,737,94,2014-08-02T11:05:00,8,20879036,201507
OK,98,39,737,98,2014-08-02T11:10:00,5,20879485,201507
OK,54,71,737,54,2014-08-02T11:15:00,1,20879934,201507
OK,81,47,737,81,2014-08-02T11:20:00,6,20880383,201507
OK,82,47,737,82,2014-08-02T11:25:00,7,20880832,201507
OK,86,44,737,86,2014-08-02T11:30:00,6,20881281,201507
OK,92,42,737,92,2014-08-02T11:35:00,8,20881730,201507
OK,90,42,737,90,2014-08-02T11:40:00,7,20882179,201507
OK,74,52,737,74,2014-08-02T11:45:00,7,20882628,201507
OK,67,57,737,67,2014-08-02T11:50:00,8,20883077,201507
OK,82,47,737,82,2014-08-02T11:55:00,6,20883526,201507
OK,83,46,737,83,2014-08-02T12:00:00,5,20883975,201507
OK,82,47,737,82,2014-08-02T12:05:00,9,20884424,201507
OK,85,45,737,85,2014-08-02T12:10:00,10,20884873,201507
OK,85,45,737,85,2014-08-02T12:15:00,8,20885322,201507
OK,104,37,737,104,2014-08-02T12:20:00,8,20885771,201507
OK,96,40,737,96,2014-08-02T12:25:00,8,20886220,201507
OK,85,45,737,85,2014-08-02T12:30:00,7,20886669,201507
OK,80,48,737,80,2014-08-02T12:35:00,10,20887118,201507
OK,75,51,737,75,2014-08-02T12:40:00,6,20887567,201507
OK,92,42,737,92,2014-08-02T12:45:00,5,20888016,201507
OK,91,42,737,91,2014-08-02T12:50:00,8,20888465,201507
OK,109,35,737,109,2014-08-02T12:55:00,6,20888914,201507
OK,91,42,737,91,2014-08-02T13:00:00,12,20889363,201507
OK,97,39,737,97,2014-08-02T13:05:00,10,20889812,201507
OK,100,38,737,100,2014-08-02T13:10:00,3,20890261,201507
OK,54,71,737,54,2014-08-02T13:15:00,3,20890710,201507
OK,75,51,737,75,2014-08-02T13:20:00,12,20891159,201507
OK,71,54,737,71,2014-08-02T13:25:00,8,20891608,201507
OK,67,57,737,67,2014-08-02T13:30:00,6,20892057,201507
OK,75,51,737,75,2014-08-02T13:35:00,10,20892506,201507
OK,96,40,737,96,2014-08-02T13:40:00,8,20892955,201507
OK,86,44,737,86,2014-08-02T13:45:00,6,20893404,201507
OK,88,43,737,88,2014-08-02T13:50:00,7,20893853,201507
OK,77,50,737,77,2014-08-02T13:55:00,5,20894302,201507
OK,77,50,737,77,2014-08-02T14:00:00,3,20894751,201507
OK,84,46,737,84,2014-08-02T14:05:00,2,20895200,201507
OK,90,42,737,90,2014-08-02T14:10:00,3,20895649,201507
OK,90,42,737,90,2014-08-02T14:15:00,5,20896098,201507
OK,90,42,737,90,2014-08-02T14:20:00,9,20896547,201507
OK,83,46,737,83,2014-08-02T14:25:00,6,20896996,201507
OK,97,39,737,97,2014-08-02T14:30:00,2,20897445,201507
OK,84,46,737,84,2014-08-02T14:35:00,4,20897894,201507
OK,61,63,737,61,2014-08-02T14:40:00,4,20898343,201507
OK,68,56,737,68,2014-08-02T14:45:00,8,20898792,201507
OK,84,46,737,84,2014-08-02T14:50:00,11,20899241,201507
OK,92,42,737,92,2014-08-02T14:55:00,6,20899690,201507
OK,85,45,737,85,2014-08-02T15:00:00,3,20900139,201507
OK,102,37,737,102,2014-08-02T15:05:00,5,20900588,201507
OK,104,37,737,104,2014-08-02T15:10:00,8,20901037,201507
OK,110,35,737,110,2014-08-02T15:15:00,3,20901486,201507
OK,106,36,737,106,2014-08-02T15:20:00,7,20901935,201507
OK,101,38,737,101,2014-08-02T15:25:00,9,20902384,201507
OK,90,42,737,90,2014-08-02T15:30:00,6,20902833,201507
OK,87,44,737,87,2014-08-02T15:35:00,10,20903282,201507
OK,89,43,737,89,2014-08-02T15:40:00,8,20903731,201507
OK,101,38,737,101,2014-08-02T15:45:00,4,20904180,201507
OK,107,36,737,107,2014-08-02T15:50:00,6,20904629,201507
OK,110,35,737,110,2014-08-02T15:55:00,5,20905078,201507
OK,98,39,737,98,2014-08-02T16:00:00,4,20905527,201507
OK,66,58,737,66,2014-08-02T16:05:00,2,20905976,201507
OK,76,50,737,76,2014-08-02T16:10:00,2,20906425,201507
OK,86,44,737,86,2014-08-02T16:15:00,2,20906874,201507
OK,102,37,737,102,2014-08-02T16:20:00,3,20907323,201507
OK,102,37,737,102,2014-08-02T16:25:00,1,20907772,201507
OK,93,41,737,93,2014-08-02T16:30:00,3,20908221,201507
OK,86,44,737,86,2014-08-02T16:35:00,7,20908670,201507
OK,69,56,737,69,2014-08-02T16:40:00,3,20909119,201507
OK,90,42,737,90,2014-08-02T16:45:00,6,20909568,201507
OK,91,42,737,91,2014-08-02T16:50:00,2,20910017,201507
OK,74,52,737,74,2014-08-02T16:55:00,2,20910466,201507
OK,80,48,737,80,2014-08-02T17:00:00,7,20910915,201507
OK,81,47,737,81,2014-08-02T17:05:00,5,20911364,201507
OK,97,39,737,97,2014-08-02T17:10:00,2,20911813,201507
OK,89,43,737,89,2014-08-02T17:15:00,3,20912262,201507
OK,65,59,737,65,2014-08-02T17:20:00,5,20912711,201507
OK,64,60,737,64,2014-08-02T17:25:00,6,20913160,201507
OK,71,54,737,71,2014-08-02T17:30:00,4,20913609,201507
OK,74,52,737,74,2014-08-02T17:35:00,3,20914058,201507
OK,83,46,737,83,2014-08-02T17:40:00,2,20914507,201507
OK,88,43,737,88,2014-08-02T17:45:00,1,20914956,201507
OK,77,50,737,77,2014-08-02T17:50:00,4,20915405,201507
OK,91,42,737,91,2014-08-02T17:55:00,11,20915854,201507
OK,94,41,737,94,2014-08-02T18:00:00,10,20916303,201507
OK,73,52,737,73,2014-08-02T18:05:00,8,20916752,201507
OK,73,52,737,73,2014-08-02T18:10:00,5,20917201,201507
OK,84,46,737,84,2014-08-02T18:15:00,3,20917650,201507
OK,92,42,737,92,2014-08-02T18:20:00,4,20918099,201507
OK,92,42,737,92,2014-08-02T18:25:00,2,20918548,201507
OK,88,43,737,88,2014-08-02T18:30:00,4,20918997,201507
OK,90,42,737,90,2014-08-02T18:35:00,7,20919446,201507
OK,96,40,737,96,2014-08-02T18:40:00,3,20919895,201507
OK,96,40,737,96,2014-08-02T18:45:00,3,20920344,201507
OK,98,39,737,98,2014-08-02T18:50:00,2,20920793,201507
OK,87,44,737,87,2014-08-02T18:55:00,2,20921242,201507
OK,87,44,737,87,2014-08-02T19:00:00,2,20921691,201507
OK,95,40,737,95,2014-08-02T19:05:00,0,20922140,201507
OK,107,36,737,107,2014-08-02T19:10:00,1,20922589,201507
OK,80,48,737,80,2014-08-02T19:15:00,2,20923038,201507
OK,87,44,737,87,2014-08-02T19:20:00,5,20923487,201507
OK,92,42,737,92,2014-08-02T19:25:00,5,20923936,201507
OK,73,52,737,73,2014-08-02T19:30:00,3,20924385,201507
OK,81,47,737,81,2014-08-02T19:35:00,2,20924834,201507
OK,89,43,737,89,2014-08-02T19:40:00,1,20925283,201507
OK,63,61,737,63,2014-08-02T19:45:00,3,20925732,201507
OK,94,41,737,94,2014-08-02T19:50:00,3,20926181,201507
OK,145,26,737,145,2014-08-02T19:55:00,1,20926630,201507
OK,94,41,737,94,2014-08-02T20:00:00,3,20927079,201507
OK,208,18,737,208,2014-08-02T20:05:00,1,20927528,201507
OK,81,47,737,81,2014-08-02T20:10:00,2,20927977,201507
OK,81,47,737,81,2014-08-02T20:15:00,0,20928426,201507
OK,90,42,737,90,2014-08-02T20:20:00,4,20928875,201507
OK,92,42,737,92,2014-08-02T20:25:00,8,20929324,201507
OK,97,39,737,97,2014-08-02T20:30:00,5,20929773,201507
OK,98,39,737,98,2014-08-02T20:35:00,6,20930222,201507
OK,108,35,737,108,2014-08-02T20:40:00,5,20930671,201507
OK,74,52,737,74,2014-08-02T20:45:00,1,20931120,201507
OK,79,48,737,79,2014-08-02T20:50:00,2,20931569,201507
OK,86,44,737,86,2014-08-02T20:55:00,1,20932018,201507
OK,32,120,737,32,2014-08-02T21:00:00,1,20932467,201507
OK,32,120,737,32,2014-08-02T21:05:00,0,20932916,201507
OK,92,42,737,92,2014-08-02T21:10:00,1,20933365,201507
OK,92,42,737,92,2014-08-02T21:15:00,1,20933814,201507
OK,92,42,737,92,2014-08-02T21:20:00,0,20934263,201507
OK,92,42,737,92,2014-08-02T21:25:00,0,20934712,201507
OK,66,58,737,66,2014-08-02T21:30:00,2,20935161,201507
OK,74,52,737,74,2014-08-02T21:35:00,2,20935610,201507
OK,83,46,737,83,2014-08-02T21:40:00,1,20936059,201507
OK,70,55,737,70,2014-08-02T21:45:00,1,20936508,201507
OK,70,55,737,70,2014-08-02T21:50:00,0,20936957,201507
OK,70,55,737,70,2014-08-02T21:55:00,0,20937406,201507
OK,70,55,737,70,2014-08-02T22:00:00,0,20937855,201507
OK,70,55,737,70,2014-08-02T22:05:00,0,20938304,201507
OK,82,47,737,82,2014-08-02T22:10:00,1,20938753,201507
OK,82,47,737,82,2014-08-02T22:15:00,3,20939202,201507